Weather in Gelgaudiškio

Lithuania     55°04′32″N   22°58′30″E
temp.,
°C
wind,
m/s
gust,
m/s
humid.,
%
clouds,
%
prec.,
mm/h
press.,
hPa
HPBL,
m
26 july, mon
mon2600:00+19ese357920 0.0 101769
03:00+18ese3481100 0.0 101858
06:00+17se3681100 0.0 101893
09:00+22se4864100 0.0 1017328
12:00+26se574992 0.0 10181060
15:00+28se67406 0.0 10172414
18:00+27ese684897 0.0 10151059
21:00+24ese495795 0.0 1015292
27 july, tue
tue2700:00+20ese4127271 0.0 1015249
03:00+20ese41072100 0.0 1014230
06:00+19ese51180100 0.3 1013342
09:00+18ese5119499 2.5 1013440
12:00+22se688399 1.3 1012883
15:00+25ssw5777100 4.3 1011902
18:00+22sw4790100 4.4 1010536
21:00+20wsw119491 6.0 101017
28 july, wed
wed2800:00+19w3596100 1.4 1011142
03:00+18w399885 1.4 1011256
06:00+17wsw389821 0.0 1011211
09:00+21wsw5886100 0.0 1011378
12:00+26wsw57550 0.0 10111375
15:00+27wsw685131 0.0 10112031
18:00+26w58558 0.0 10111508
21:00+21wnw346497 0.0 101183
29 july, thu
thu2900:00+18w33785 0.0 101136
03:00+17wsw3581100 0.0 101190
06:00+18wsw3677100 0.0 1012153
09:00+21wsw466760 0.0 1012454
12:00+24wsw455395 0.0 10121391
15:00+26wsw354898 0.0 10112086
18:00+23wsw36722 1.3 1011372
21:00+21wsw227429 1.9 101013
30 july, fri
fri3000:00+18ssw118295 0.0 101011
03:00+18s228517 0.0 100936
06:00+17ssw2383100 0.0 100946
09:00+19s377794 0.0 1008219
12:00+27sw694950 0.0 10071631
15:00+19wsw5990100 1.1 1006200
18:00+19w4119595 4.5 1005436
21:00+20w2391100 5.9 100455